Cloud_Cover
100 100 100 100 100 100 100 100 100 80 100 100 100 100 100 98 100 93 100 100 56 4 0 0 0 2 5 5 5 5 2 7 11 0 0 0 0 0 0 0 4 66 4
75 85 88 93 99 100 100 100 100 100 100 100 100 100 69 30 100 100 100 15 0 1 0 0 3 0 0 5 5 5 2 15 39 5 5 2 0 0 0 0 84 7 4
96 81 100 89 34 74 100 100 100 100 100 89 41 34 100 100 100 4 5 5 5 0 0 2 5 3 0 2 5 5 28 92 100 5 5 68 50 4 5 0 0 22 5
100 97 87 72 5 40 86 100 100 71 7 5 48 98 71 21 0 2 4 1 5 0 0 2 5 0 4 0 5 5 71 16 99 82 15 95 78 5 5 0 2 24 0
99 80 63 89 83 72 100 52 25 36 41 2 4 1 0 0 0 4 0 2 0 0 0 0 5 5 5 2 3 5 12 5 91 100 39 45 81 13 2 0 2 0 3
100 61 100 100 100 100 97 44 79 10 3 4 0 0 0 0 0 2 0 0 0 5 6 4 5 10 5 1 8 1 5 62 100 100 100 9 21 41 9 2 0 5 1
100 100 97 90 100 100 100 98 16 2 4 0 0 0 0 0 4 5 1 5 5 10 52 42 33 42 6 4 0 12 3 4 100 100 100 98 12 5 5 5 0 0 4
100 77 49 100 21 1 3 6 3 0 0 0 0 0 0 0 0 5 2 29 18 5 100 39 68 4 5 5 7 0 3 5 96 95 100 71 100 10 99 5 24 0 4
50 62 53 8 5 6 6 0 0 1 0 0 0 0 0 0 0 0 3 1 2 5 9 5 5 69 78 5 9 76 3 3 42 25 78 100 74 84 53 84 60 6 1
92 23 22 14 5 1 0 0 0 0 0 0 0 0 0 0 0 0 0 0 0 2 2 4 5 5 5 5 5 5 72 38 100 99 54 47 87 98 94 100 100 54 11
94 7 76 36 13 35 11 9 0 0 0 0 0 0 0 54 74 36 34 0 0 0 0 0 0 0 0 3 52 100 100 54 96 97 71 100 86 89 100 100 100 100 100
98 40 100 97 56 18 8 0 0 0 0 2 5 2 0 100 57 38 5 0 0 0 0 0 0 0 21 76 78 15 92 92 100 98 71 93 100 100 100 100 100 100 100
0 80 32 30 94 24 84 0 19 23 32 12 24 4 17 87 99 63 84 85 51 2 94 31 66 37 70 37 23 88 29 0 36 98 100 66 33 38 100 100 100 100 99
10 20 34 31 41 10 91 25 58 70 54 67 15 3 16 5 100 12 88 100 68 100 80 54 77 96 29 97 83 73 64 19 0 66 82 100 67 13 96 100 100 100 100
4 15 7 0 0 2 64 20 93 42 29 94 34 10 70 66 92 7 63 3 70 36 48 76 96 80 34 96 68 76 40 9 0 0 23 64 100 32 5 97 100 100 100
0 0 1 7 3 14 13 34 8 100 100 30 100 100 100 73 71 97 94 67 32 47 56 100 97 64 31 90 72 79 0 0 0 0 0 0 18 98 5 5 96 99 100
0 0 1 2 11 1 0 6 12 84 44 100 92 100 35 13 0 0 45 53 100 44 16 9 10 23 70 9 5 0 0 5 0 0 0 0 0 4 99 5 8 96 100
0 0 0 0 0 9 40 32 40 90 100 96 64 100 28 73 46 22 27 90 100 86 72 60 30 68 21 32 0 0 0 0 7 0 14 0 0 0 20 100 24 11 100
0 1 0 0 1 1 11 18 29 100 100 88 98 13 100 14 82 72 57 81 1 3 3 2 24 92 0 0 0 0 2 25 6 50 0 0 24 14 13 2 96 47 38
0 0 1 2 17 0 61 15 69 41 45 43 56 73 0 0 17 40 62 17 15 72 2 28 64 0 0 0 3 0 0 40 11 71 61 33 0 33 87 29 6 55 19
0 0 0 0 0 0 2 5 11 100 91 90 38 100 26 0 34 2 2 59 35 10 100 74 0 0 0 46 0 78 15 4 77 20 58 7 2 5 22 100 100 100 51
0 0 0 0 0 0 6 0 43 76 33 12 2 13 3 86 46 7 1 30 36 83 0 0 0 0 1 19 11 4 79 89 100 93 8 6 5 7 9 12 34 6 33
0 0 0 0 0 0 0 10 1 12 0 7 15 8 0 0 4 2 17 5 27 0 0 0 10 5 13 13 0 19 30 97 62 70 17 24 13 5 5 5 10 2 0
0 0 0 0 0 0 0 20 10 0 0 0 0 0 10 23 0 45 26 6 0 0 0 0 0 18 0 9 6 0 3 5 5 63 94 51 40 5 5 5 5 5 0
0 0 2 0 0 0 0 0 2 0 0 0 0 0 0 0 0 0 2 0 1 0 0 2 3 0 0 0 0 12 5 0 5 74 71 100 95 22 34 2 0 11 5
0 0 0 0 0 0 0 0 0 13 0 0 0 0 0 0 0 0 0 0 0 0 15 4 4 0 6 1 0 0 1 5 30 47 86 100 100 67 28 8 3 0 17